[[{"header":{"parameterUnit":"m.s-1","parameterCategory":1,"la1":30.2991,"la2":30.254,"lo1":-89.0895,"lo2":-89.0444,"dx":0.0017,"dy":0.0017,"nx":28,"ny":28,"refTime":"2023-01-30T15:00:00:Z","depth":0,"parameterNumber":2,"parameterNumberName":"U-component_of_WINDS"},"data":[0,0,0,0,0,0,0,0,0,0,0,0,0,0,0,0,0,0,0,0,0,0,0,0,0,0,0,0,0,0,0,0,0,0,0,0,0,0,0,0,0,0,0,0,0,0,0,0,0,0,0,0,0,0,0,0,0,0,0.6587,0.6587,0,0.6639,0.6639,0.664,0.6621,0.662,0.6618,0.6617,0.6676,0.6678,0.6681,0,0,0,0,0,0,0,0,0,0,0,0,0,0.6476,0.6478,0.6587,0.6587,0.6588,0.6639,0.664,0.664,0.6621,0.662,0.6618,0.6617,0.6675,0.6678,0.6681,0,0,0,0,0,0,0,0,0,0,0,0,0,0.6525,0.6478,0.6587,0.6584,0.6585,0.6639,0.664,0.664,0.6621,0.662,0.6618,0.6616,0.6674,0.6678,0.6682,0.6742,0,0,0.6694,0.6696,0,0,0,0,0,0,0,0,0.6523,0.653,0.6584,0.6585,0.6585,0.6621,0.6622,0.6675,0.6622,0.6608,0.6617,0.6615,0.6659,0.6665,0.6678,0.6745,0.6748,0.6694,0.6697,0.6698,0.67,0,0,0,0,0,0,0,0.6519,0.6527,0.6608,0.6585,0.6586,0.6582,0.6588,0.6632,0.6643,0.6609,0.6607,0.6614,0.6659,0.6675,0.668,0.6748,0.6694,0.6698,0.67,0.6702,0.6869,0.6871,0,0,0,0,0,0,0.6515,0.6524,0.6606,0.6609,0.6549,0.6586,0.6592,0.6612,0.6643,0.6645,0.6615,0.6612,0.6669,0.6675,0.6682,0.6756,0.6698,0.6702,0.6704,0.6867,0.6869,0.6871,0,0,0,0,0,0,0.6513,0.6522,0.6604,0.6566,0.6577,0.659,0.6612,0.6614,0.6629,0.6647,0.665,0.6628,0.6667,0.6676,0.6727,0.6757,0.6704,0.6708,0.6864,0.6867,0.687,0.6903,0,0,0,0,0,0,0.6509,0.6522,0.6544,0.6567,0.6579,0.6647,0.6614,0.6616,0.6635,0.6632,0.666,0.6663,0.6667,0.6721,0.6731,0.6762,0.6711,0.6862,0.6866,0.6869,0.69,0.6907,0.6913,0,0,0,0,0,0.6506,0.6552,0.6545,0.6555,0.6606,0.6649,0.6656,0.6657,0.6637,0.6661,0.6673,0.6662,0.6752,0.6727,0.6738,0.677,0.686,0.6865,0.6869,0.6897,0.6906,0.6913,0,0,0,0,0,0,0.6533,0.6555,0.6547,0.6602,0.6624,0.6645,0.6675,0.6667,0.6696,0.6692,0.6694,0.6701,0.6754,0.6767,0.6738,0.6831,0.6803,0.681,0.682,0.6829,0.6836,0.6833,0.6714,0,0,0,0,0,0.6545,0.6577,0.6594,0.6641,0.6652,0.6662,0.668,0.668,0.6703,0.6712,0.6728,0.6752,0.6786,0.6808,0.684,0.6901,0.6908,0.6929,0.6936,0.6941,0.6948,0.6982,0.6992,0.6886,0.6886,0.6886,0,0,0.6572,0.6587,0.6607,0.6647,0.6664,0.6698,0.667,0.6707,0.6732,0.6718,0.6767,0.678,0.6807,0.6864,0.6889,0.6876,0.6978,0.6947,0.6951,0.6955,0.6988,0.6998,0.7007,0.6889,0.6889,0.6888,0,0,0.6637,0.6651,0.6692,0.6709,0.6734,0.674,0.6749,0.6772,0.678,0.6829,0.6819,0.685,0.6908,0.6928,0.6946,0.7018,0.7011,0.7029,0.7066,0.7099,0.7107,0.7115,0.7142,0.7152,0.7035,0.7035,0.7035,0,0.6667,0.6716,0.6715,0.6752,0.6771,0.6758,0.68,0.6817,0.6852,0.6866,0.685,0.6922,0.694,0.7001,0.7019,0.7033,0.7046,0.7026,0.7106,0.7113,0.712,0.7146,0.7157,0.7037,0.7037,0.7037,0.7036,0,0.6753,0.6787,0.6817,0.6849,0.6871,0.6911,0.6917,0.694,0.6937,0.6945,0.6996,0.7016,0.7052,0.7067,0.7065,0.7128,0.7119,0.7105,0.7077,0.7133,0.7157,0.7167,0.704,0.7039,0.7039,0.7038,0,0,0.6838,0.6868,0.6879,0.6894,0.692,0.6948,0.6988,0.7021,0.7041,0.7066,0.71,0.7149,0.7136,0.7156,0.7156,0.7185,0.7243,0.7167,0.7168,0.7182,0.7316,0.7328,0.7339,0.7237,0.7239,0.7241,0.7314,0,0.6906,0.6974,0.6974,0.7038,0.7071,0.7059,0.7094,0.7115,0.7123,0.7153,0.7163,0.7198,0.7177,0.7189,0.7218,0.723,0.727,0.7225,0.7272,0.7273,0.7266,0.7352,0.7364,0.7432,0.7323,0.7325,0.7326,0,0.6995,0.7021,0.7087,0.7109,0.7123,0.7154,0.7186,0.7214,0.7238,0.7242,0.7264,0.726,0.7303,0.7273,0.7332,0.7301,0.732,0.7329,0.7332,0.7338,0.7304,0.7361,0.7454,0.7465,0.7341,0.734,0.7339,0,0.7052,0.7103,0.715,0.7163,0.7189,0.7212,0.7224,0.7246,0.7267,0.7294,0.7308,0.7341,0.7359,0.7385,0.7391,0.7368,0.7451,0.7421,0.7457,0.7457,0.7476,0.7475,0.7575,0.7486,0.7486,0.7486,0.7486,0,0.7129,0.7171,0.7176,0.7205,0.7252,0.7252,0.7299,0.7309,0.7329,0.7361,0.7353,0.7384,0.7388,0.742,0.7425,0.7474,0.7482,0.7488,0.7489,0.749,0.7489,0.7504,0.75,0.7489,0.7488,0.7488,0.7487,0,0.7201,0.7206,0.7256,0.7277,0.7283,0.7317,0.7335,0.7364,0.7371,0.7412,0.7421,0.7434,0.7471,0.7479,0.7523,0.7527,0.7586,0.7581,0.7577,0.7577,0.7613,0.761,0.7727,0.7743,0.7642,0.7643,0.7644,0,0.725,0.7282,0.7305,0.7326,0.7339,0.7371,0.7392,0.7393,0.7415,0.7445,0.747,0.7506,0.7535,0.7596,0.761,0.7645,0.7642,0.768,0.7647,0.7647,0.7644,0.7643,0.7647,0.7687,0.7688,0.7689,0.769,0,0.7338,0.7339,0.7368,0.7398,0.7422,0.7447,0.747,0.7487,0.7492,0.7517,0.7554,0.7577,0.7622,0.7659,0.7693,0.7707,0.7701,0.77,0.771,0.7712,0.7709,0.7712,0.7596,0.7698,0.7697,0.7696,0.7696,0.7696,0.7401,0.7429,0.745,0.7483,0.75,0.7522,0.7549,0.756,0.759,0.7626,0.7625,0.7667,0.7691,0.7736,0.7752,0.7786,0.7774,0.7789,0.7793,0.7797,0.7801,0.7702,0.7792,0.7792,0.7792,0.7791,0.7791,0,0.7489,0.7502,0.7532,0.7564,0.759,0.7579,0.7604,0.7627,0.7663,0.7685,0.7714,0.7757,0.7793,0.7809,0.7845,0.7868,0.7866,0.7878,0.7877,0.7881,0.7809,0.7797,0.7879,0.7879,0.7879,0.7879,0.7879,0.7879,0.7538,0.7585,0.7589,0.7645,0.7657,0.7697,0.7712,0.7733,0.775,0.7799,0.7828,0.7837,0.7858,0.7894,0.7927,0.7931,0.7945,0.7959,0.7962,0.7895,0.7886,0.7877,0.7866,0.7962,0.7962,0.8031,0.8032,0.8032]},{"header":{"parameterUnit":"m.s-1","parameterCategory":1,"la1":30.2991,"la2":30.254,"lo1":-89.0895,"lo2":-89.0444,"dx":0.0017,"dy":0.0017,"nx":28,"ny":28,"refTime":"2023-01-30T15:00:00:Z","depth":0,"parameterNumber":3,"parameterNumberName":"V-component_of_WINDS"},"data":[0,0,0,0,0,0,0,0,0,0,0,0,0,0,0,0,0,0,0,0,0,0,0,0,0,0,0,0,0,0,0,0,0,0,0,0,0,0,0,0,0,0,0,0,0,0,0,0,0,0,0,0,0,0,0,0,0,0,2.5893,2.5893,0,2.5949,2.595,2.595,2.5923,2.5922,2.592,2.5919,2.5975,2.5977,2.598,0,0,0,0,0,0,0,0,0,0,0,0,0,2.5759,2.5762,2.5893,2.5893,2.5894,2.5949,2.595,2.595,2.5923,2.5922,2.592,2.5918,2.5974,2.5977,2.598,0,0,0,0,0,0,0,0,0,0,0,0,0,2.5816,2.5763,2.5892,2.5887,2.5887,2.5949,2.595,2.5951,2.5924,2.5922,2.592,2.5918,2.5973,2.5977,2.5981,2.605,0,0,2.5994,2.5996,0,0,0,0,0,0,0,0,2.5813,2.5821,2.5887,2.5888,2.5888,2.5927,2.5923,2.5984,2.5924,2.591,2.5919,2.5916,2.596,2.5965,2.5981,2.6052,2.6055,2.5994,2.5997,2.5998,2.6,0,0,0,0,0,0,0,2.5809,2.5819,2.5915,2.5888,2.5889,2.5881,2.5887,2.5934,2.5946,2.5911,2.5909,2.5916,2.596,2.5977,2.5982,2.6056,2.5994,2.5998,2.6,2.6002,2.6187,2.6189,0,0,0,0,0,0,2.5806,2.5816,2.5913,2.5916,2.5845,2.5885,2.5892,2.5916,2.5946,2.5948,2.5918,2.5915,2.597,2.5977,2.5984,2.6067,2.5998,2.6002,2.6005,2.6184,2.6187,2.619,0,0,0,0,0,0,2.5803,2.5815,2.5911,2.5866,2.5877,2.589,2.5918,2.5919,2.5935,2.5951,2.5953,2.5933,2.5969,2.5978,2.6034,2.6068,2.6004,2.6008,2.6182,2.6185,2.6189,2.6234,0,0,0,0,0,0,2.5799,2.5814,2.5841,2.5866,2.588,2.5961,2.592,2.5921,2.5943,2.5939,2.5966,2.5968,2.5968,2.6028,2.6038,2.6073,2.6011,2.6179,2.6183,2.6188,2.6229,2.6238,2.6246,0,0,0,0,0,2.5795,2.5851,2.5843,2.5854,2.5914,2.5963,2.5971,2.597,2.5946,2.5973,2.5983,2.5967,2.6063,2.6034,2.6045,2.6082,2.6176,2.6182,2.6187,2.6225,2.6237,2.6246,0,0,0,0,0,0,2.5829,2.5854,2.5845,2.5912,2.5935,2.5958,2.5993,2.5982,2.6012,2.6008,2.6005,2.6011,2.6069,2.6081,2.6048,2.615,2.6116,2.6124,2.6141,2.6152,2.616,2.6157,2.6015,0,0,0,0,0,2.5844,2.5882,2.5902,2.5959,2.5971,2.598,2.6001,2.5999,2.6023,2.6033,2.6047,2.607,2.6106,2.6129,2.6162,2.623,2.6236,2.6261,2.6269,2.6276,2.6284,2.6321,2.6332,2.6207,2.6207,2.6207,0,0,2.5876,2.5894,2.5919,2.5966,2.5984,2.6024,2.5989,2.6031,2.6061,2.6039,2.6093,2.6104,2.613,2.6193,2.6221,2.6204,2.6319,2.6283,2.6289,2.6292,2.6327,2.6339,2.635,2.6211,2.621,2.621,0,0,2.5954,2.5972,2.6022,2.6041,2.6069,2.6074,2.6086,2.6111,2.6117,2.6172,2.6157,2.619,2.6251,2.627,2.6288,2.6373,2.636,2.6384,2.6429,2.6465,2.6475,2.6483,2.6515,2.6526,2.6391,2.6391,2.6391,0,2.599,2.605,2.6048,2.6093,2.6114,2.6096,2.6146,2.6164,2.6202,2.6216,2.6197,2.6273,2.6289,2.6356,2.6377,2.6391,2.6405,2.6382,2.6474,2.6482,2.649,2.652,2.6532,2.6394,2.6393,2.6393,2.6393,0,2.6093,2.6134,2.6171,2.6208,2.6233,2.628,2.6285,2.631,2.6305,2.6312,2.6367,2.6386,2.6423,2.6438,2.6433,2.6504,2.6493,2.6474,2.6439,2.6505,2.6533,2.6544,2.6398,2.6397,2.6396,2.6395,0,0,2.6196,2.6232,2.6245,2.6262,2.6291,2.6323,2.6368,2.6405,2.6427,2.6453,2.6491,2.6543,2.6525,2.6545,2.6542,2.6573,2.664,2.655,2.655,2.6567,2.672,2.6736,2.6749,2.6631,2.6633,2.6635,2.6718,0,2.6277,2.6359,2.6358,2.6433,2.6471,2.6454,2.6494,2.6516,2.6523,2.6556,2.6563,2.6601,2.6574,2.6586,2.6616,2.6626,2.6671,2.6619,2.6666,2.6668,2.6662,2.6763,2.678,2.6858,2.6729,2.6731,2.6732,0,2.6384,2.6414,2.6493,2.6517,2.6533,2.6569,2.6603,2.6634,2.6658,2.6661,2.6684,2.6675,2.6721,2.6684,2.6747,2.6712,2.673,2.6738,2.6741,2.6746,2.6705,2.6773,2.6883,2.6895,2.6749,2.6748,2.6747,0,2.6452,2.6513,2.6568,2.6583,2.6612,2.6637,2.665,2.6672,2.6694,2.6723,2.6737,2.6771,2.6789,2.6815,2.6815,2.6788,2.6879,2.6842,2.6883,2.6883,2.6904,2.6903,2.702,2.6914,2.6914,2.6913,2.6913,0,2.6544,2.6594,2.6599,2.6633,2.6688,2.6686,2.6739,2.6749,2.6769,2.6804,2.6791,2.6824,2.6823,2.6856,2.6856,2.6908,2.6916,2.692,2.692,2.6922,2.6922,2.6936,2.6931,2.6916,2.6916,2.6915,2.6915,0,2.6631,2.6636,2.6696,2.6718,2.6725,2.6764,2.6783,2.6815,2.6821,2.6866,2.6876,2.6885,2.6923,2.6926,2.697,2.6971,2.7034,2.7027,2.7027,2.7026,2.7067,2.7063,2.7198,2.7216,2.7097,2.7098,2.7099,0,2.669,2.6728,2.6754,2.6777,2.6792,2.6829,2.6852,2.6851,2.6875,2.6905,2.6933,2.6971,2.7001,2.7063,2.7073,2.7106,2.7101,2.7146,2.7106,2.7107,2.7103,2.7101,2.7105,2.7154,2.7155,2.7156,2.7157,0,2.6795,2.6795,2.6829,2.6864,2.6892,2.6919,2.6944,2.6963,2.6965,2.6992,2.7032,2.7055,2.7101,2.7138,2.7171,2.7183,2.7171,2.7169,2.7181,2.7184,2.7183,2.7185,2.7049,2.7167,2.7166,2.7165,2.7165,2.7164,2.687,2.6903,2.6927,2.6965,2.6984,2.7008,2.7039,2.7049,2.7082,2.712,2.7116,2.7161,2.7183,2.7226,2.7241,2.7274,2.7259,2.7275,2.728,2.7284,2.7289,2.7176,2.728,2.728,2.728,2.7279,2.7279,0,2.6975,2.6989,2.7024,2.7061,2.709,2.7076,2.7103,2.7129,2.7168,2.719,2.722,2.7265,2.7301,2.7314,2.7348,2.7373,2.7368,2.7382,2.7381,2.7384,2.73,2.7288,2.7386,2.7386,2.7386,2.7386,2.7386,2.7386,2.7033,2.7088,2.7092,2.7156,2.7169,2.7214,2.723,2.7252,2.727,2.7322,2.7352,2.736,2.7378,2.7414,2.7446,2.7448,2.7462,2.7479,2.7479,2.7401,2.739,2.738,2.7368,2.7482,2.7482,2.7561,2.7561,2.7562]}]]